Location: Noordwijk
(52.2400°N, 4.4500°E)
Time: 12:09:14
(UTC+00:00)

AO-85 - Pass Details

Date: 09 December 2022
Orbit: 516 x 753 km, 64.8° (Epoch: 04 January)

Event Time Altitude Azimuth Distance (km) Brightness Sun altitude
Rises 17:43:43 0° 301° (WNW) 2,842 ? -19.2°
Reaches altitude 10° 17:46:56 10° 325° (NW) 1,888 ? -19.7°
Maximum altitude 17:49:20 15° 0° (N) 1,572 ? -20.1°
Enters shadow 17:49:33 15° 4° (N) 1,572 ? -20.1°
